This demonstration page uses our WeatherBlox Daily Observations layout. Learn more.

Left ArrowRight Arrow

34.02893, -84.19858

Hourly Observations for June 20, 2022

Temp ( °F °C ) Dew Point ( °F °C ) Humidity (%) Winds ( mph kmh ) Pressure ( in mb ) Visibility ( mi km ) Precip ( " mm )
12:53 am 00:53 Clear 63 17.2 52 11.1 68 68 Calm 30.13 1020 10 16 0.00 0.00
1:53 am 01:53 Clear 62 16.7 50 10 65 65 Calm 30.13 1020 10 16 0.00 0.00
2:53 am 02:53 Clear 62 16.7 51 10.6 67 67 Calm 30.13 1020 10 16 0.00 0.00
3:53 am 03:53 Clear 62 16.7 49 9.4 62 62 Calm 30.12 1020 10 16 0.00 0.00
4:53 am 04:53 Clear 60 15.6 50 10 70 70 Calm 30.13 1020 10 16 0.00 0.00
5:53 am 05:53 Clear 62 16.7 50 10 65 65 Calm 30.14 1021 10 16 0.00 0.00
6:53 am 06:53 Sunny 60 15.6 51 10.6 72 72 Calm 30.17 1022 10 16 0.00 0.00
7:53 am 07:53 Mostly Sunny 68 20 54 12.2 61 61 Calm 30.19 1023 10 16 0.00 0.00
8:53 am 08:53 Mostly Sunny 73 22.8 60 15.6 64 64 Calm 30.22 1024 10 16 0.00 0.00
9:53 am 09:53 Sunny 77 25 64 17.8 64 64 Calm 30.23 1024 10 16 0.00 0.00
10:53 am 10:53 Sunny 82 27.8 65 18.3 56 56 VRB 3 6 30.22 1023 10 16 0.00 0.00
11:53 am 11:53 Sunny 84 28.9 61 16.1 46 46 VRB 6 9 30.22 1023 10 16 0.00 0.00
12:53 pm 12:53 Sunny 87 30.6 56 13.3 35 35 Calm 30.20 1023 10 16 0.00 0.00
1:53 pm 13:53 Sunny 88 31.1 56 13.3 34 34 W 7 11 30.19 1023 10 16 0.00 0.00
2:53 pm 14:53 Sunny 90 32.2 58 14.4 34 34 undefined N/A 30.17 1022 10 16 0.00 0.00
3:53 pm 15:53 Sunny 91 32.8 56 13.3 31 31 undefined N/A 30.16 1021 10 16 0.00 0.00
4:53 pm 16:53 Sunny 90 32.2 55 12.8 31 31 VRB 6 9 30.16 1021 10 16 0.00 0.00
5:53 pm 17:53 Sunny 92 33.3 54 12.2 28 28 NW 8 13 30.14 1021 10 16 0.00 0.00
6:53 pm 18:53 Sunny 90 32.2 56 13.3 32 32 N 5 7 30.13 1020 10 16 0.00 0.00
7:53 pm 19:53 Sunny 88 31.1 58 14.4 36 36 NNE 6 9 30.12 1020 10 16 0.00 0.00
8:53 pm 20:53 Clear 81 27.2 58 14.4 45 45 N 3 6 30.13 1020 10 16 0.00 0.00
9:53 pm 21:53 Clear 79 26.1 61 16.1 54 54 WNW 3 6 30.13 1020 10 16 0.00 0.00
10:53 pm 22:53 Clear 75 23.9 62 16.7 64 64 SE 3 6 30.14 1021 10 16 0.00 0.00
11:53 pm 23:53 Clear 72 22.2 62 16.7 71 71 Calm 30.14 1021 10 16 0.00 0.00

Powered by AerisWeather